Back to catalog

FENGYUN 1C DEB

AliveSSO
NORAD 30726·DEBRIS·🇨🇳 China

Launched May 10, 1999 from Taiyuan Satellite Launch Center

Loading…

Next Passes (next 24 hours)

TLE

FreshSource: Space-Track

Epoch: Sep 14, 2026, 07:33 UTC

1 30726U 99025ASL 26257.31504639  .00000833  00000-0  48267-3 0  9990
2 30726  99.2670 272.2266 0078400 178.0274 303.5691 14.10236109998660

Track FENGYUN 1C DEB in real time with AllMySat

Download on the App Store